Wind_Speed
30 34 36 33 33 30 31 28 29 30 34 40 44 46 48 41 31 18 25 29 21 34 27 23 16 26 31 26 28 19 18 9 18 29 23 18 13 11 11 7 3 9 7 13
33 30 31 31 31 28 29 30 30 29 25 34 39 43 37 47 41 33 22 20 25 31 33 27 27 18 23 31 32 22 20 11 14 24 26 23 10 9 3 6 6 13 4 7
32 34 34 32 32 28 27 26 29 30 36 38 36 33 35 35 35 47 42 27 20 15 26 33 21 24 16 21 23 20 15 13 8 8 6 11 13 13 15 16 10 9 21 27
29 28 28 32 32 26 27 27 31 32 15 26 35 32 26 17 25 32 35 29 40 32 19 22 30 30 18 16 13 21 18 17 20 27 32 30 32 31 27 24 29 20 41 32
29 24 23 25 22 25 25 28 32 30 30 33 27 17 25 28 38 25 21 31 31 34 41 33 13 21 21 22 19 22 23 18 11 17 22 21 19 22 33 36 37 36 35 37
27 23 22 22 24 23 25 25 28 26 21 27 29 35 33 20 16 30 32 35 38 27 23 29 27 30 25 24 22 25 24 20 15 16 23 20 15 28 28 30 29 28 32 28
29 24 22 23 22 21 18 16 17 21 31 32 31 30 25 16 22 22 26 12 23 33 33 34 35 24 23 31 25 24 19 21 21 14 16 3 24 29 26 24 26 28 29 28
29 25 24 23 24 21 19 13 19 16 17 15 17 22 21 21 17 21 16 17 15 21 19 12 10 13 22 26 21 28 28 24 19 15 17 21 34 35 27 22 28 26 25 25
28 28 25 26 26 24 20 18 21 20 14 11 7 2 5 9 10 7 7 4 13 6 7 7 7 6 7 7 12 22 34 31 30 24 6 6 28 9 3 16 25 23 21 23
31 28 26 23 20 25 21 18 21 23 19 11 9 6 4 8 7 9 12 15 14 1 6 4 4 7 10 6 5 7 14 22 25 29 19 23 32 29 26 17 16 9 11 11
33 30 26 24 21 22 24 17 24 23 22 16 8 3 5 8 6 6 9 9 3 6 3 1 3 3 2 8 18 9 9 6 7 9 11 12 9 14 14 15 12 10 12 17
29 30 27 23 21 23 25 19 20 19 19 11 6 12 10 8 11 13 12 5 5 2 2 3 3 6 6 7 3 4 5 6 8 6 8 14 21 27 6 4 4 11 13 16
24 28 27 24 21 20 23 20 19 18 17 15 16 15 14 13 12 11 12 8 8 9 13 12 11 9 9 11 8 9 4 9 12 16 17 19 14 10 8 8 7 12 7 11
22 23 26 26 21 20 23 23 17 14 14 14 12 10 8 4 6 10 10 10 13 17 17 14 18 20 13 16 14 14 14 12 16 21 16 14 15 7 4 6 9 11 9 10
21 20 23 24 22 19 21 24 18 15 16 5 7 13 11 12 8 7 9 14 16 22 24 26 25 26 23 27 26 29 22 18 16 16 10 12 7 1 3 8 12 10 11 10
22 18 22 23 22 18 14 13 15 15 21 16 17 13 14 14 16 16 19 18 17 16 17 20 26 30 26 19 27 32 21 23 15 14 14 12 14 7 10 2 3 4 7 10
24 20 20 21 20 17 15 12 14 11 18 18 13 14 13 11 10 16 20 19 17 18 20 25 26 23 16 29 41 33 26 22 22 15 22 20 3 10 7 9 10 10 8 3
22 21 19 17 15 15 15 13 8 8 14 13 6 9 11 11 14 14 15 20 21 25 25 29 27 22 23 36 42 34 21 19 20 15 9 14 9 14 12 4 2 5 6 8
24 23 18 14 13 11 10 10 11 14 19 8 10 13 13 6 11 15 17 17 23 26 32 34 32 36 29 29 31 27 19 16 14 12 8 10 15 15 10 9 11 10 11 14
21 19 17 12 12 7 12 13 12 9 11 15 20 18 21 16 15 12 13 15 14 15 23 17 29 41 38 36 36 31 21 7 11 16 11 15 10 12 13 12 12 14 17 19
21 21 11 12 13 6 4 4 6 7 7 11 11 10 13 15 19 18 13 9 11 8 9 14 14 35 28 19 25 24 19 17 12 8 14 15 16 13 9 14 17 17 18 20
16 13 11 9 7 4 3 4 5 6 5 4 8 10 8 9 8 11 9 11 7 10 8 11 14 25 18 12 9 17 25 18 12 10 15 19 13 11 14 15 17 18 19 21
9 10 7 3 4 5 5 6 7 4 8 12 14 14 13 14 12 9 8 7 10 9 9 10 7 6 8 6 10 11 24 20 18 24 17 15 15 15 16 17 18 19 22 26
5 3 3 3 3 4 5 8 10 11 16 20 23 21 7 10 10 10 6 9 7 5 5 4 1 2 4 4 6 13 18 25 25 15 13 16 16 15 17 17 19 22 24 21
2 3 3 4 4 8 15 19 18 16 17 17 17 16 18 16 10 8 7 4 4 3 5 10 7 4 8 5 11 15 17 16 10 11 13 14 14 16 18 20 22 24 24 20
3 4 5 6 7 8 10 7 6 7 7 8 10 9 7 9 5 5 4 3 2 1 4 6 6 7 5 6 7 6 5 7 8 10 11 14 16 17 19 21 21 22 25 24
3 3 7 6 6 7 8 7 5 8 8 12 10 6 1 2 3 3 2 4 2 5 2 4 3 3 4 4 5 7 8 9 11 13 15 16 16 17 18 19 20 20 23 22
Wind_Direction
254 256 255 254 254 255 261 262 254 254 243 235 222 225 229 237 235 216 243 247 229 242 241 239 234 224 221 222 232 237 238 252 264 251 223 247 269 249 261 233 204 206 216 252
255 251 248 247 246 245 247 249 254 246 245 240 240 239 239 235 234 232 249 239 244 247 245 244 239 231 215 228 236 238 245 246 260 266 258 256 245 227 226 277 269 239 217 250
255 255 255 248 237 233 235 240 247 248 242 248 251 254 255 243 239 243 240 252 254 228 240 236 236 231 233 227 225 221 207 210 227 271 254 295 295 295 296 291 278 275 276 290
252 254 253 248 245 228 227 239 244 246 245 250 252 253 246 248 255 255 247 242 247 241 245 234 241 246 250 267 269 278 280 277 281 288 285 283 279 282 284 257 273 254 283 275
244 246 249 243 240 240 233 242 248 248 254 247 258 266 262 275 264 249 241 247 249 243 248 252 244 246 246 255 261 259 254 256 257 266 274 272 267 272 266 266 264 262 266 276
238 239 241 236 227 238 244 243 241 249 255 258 259 267 268 282 271 255 270 267 261 268 260 244 259 253 235 236 226 229 232 245 248 262 273 281 263 270 274 275 278 278 274 279
234 235 233 224 225 234 246 248 247 251 252 254 263 269 271 287 278 280 283 247 258 256 263 270 283 266 238 232 239 225 226 229 241 256 289 248 271 276 281 289 291 288 283 271
229 225 222 223 224 229 237 214 238 245 265 264 269 276 280 268 278 265 294 287 259 234 239 261 296 263 272 269 249 224 220 233 243 242 252 269 272 265 272 278 273 280 282 281
223 219 220 225 224 223 229 213 228 237 293 272 258 22 243 230 312 68 60 140 228 226 213 222 213 203 199 219 229 242 240 245 234 241 233 239 270 260 231 295 279 281 281 276
221 218 218 218 221 217 224 210 220 239 246 279 286 331 64 58 48 350 333 329 342 42 220 198 208 227 228 264 249 166 200 224 232 243 233 252 262 271 271 262 270 285 296 288
219 218 217 218 221 222 224 211 217 234 251 253 203 187 223 236 274 287 301 346 341 300 300 192 257 318 209 237 239 259 264 255 247 240 241 235 271 272 257 255 288 323 302 299
214 212 213 217 224 219 222 218 219 230 246 249 257 256 265 259 270 287 285 273 293 306 246 213 261 250 279 315 302 273 247 242 255 252 257 285 283 298 238 300 319 304 304 312
206 205 206 207 212 214 217 216 217 226 244 263 260 264 265 265 267 263 253 251 232 248 271 281 270 267 284 282 277 278 262 299 291 290 271 295 270 246 189 298 334 335 336 356
195 197 200 203 207 210 216 209 214 222 238 258 262 282 281 270 270 263 266 260 244 254 259 256 256 268 278 268 262 259 250 289 297 296 308 284 233 175 168 290 310 323 351 349
182 189 191 197 200 210 219 205 216 218 236 241 269 245 279 293 294 270 268 268 261 248 249 255 257 261 262 268 265 258 250 265 278 273 306 287 248 237 250 288 293 311 328 334
184 182 187 192 199 200 186 203 225 226 221 248 249 251 268 285 300 301 296 295 276 254 253 253 258 254 261 265 267 265 265 251 256 274 292 309 327 280 302 271 330 297 289 301
178 173 180 187 196 210 215 213 223 217 210 235 257 267 252 262 269 283 285 286 281 260 264 261 261 259 254 252 252 253 259 250 245 251 280 270 268 314 275 262 259 235 263 308
159 165 172 183 187 196 199 209 212 221 207 224 244 253 252 274 277 268 274 269 269 261 258 262 263 267 255 255 258 264 265 250 236 239 251 259 250 266 270 244 296 285 297 330
157 162 162 169 193 204 196 208 242 213 195 216 233 241 265 253 251 264 281 276 269 272 262 258 256 254 242 249 261 267 261 228 200 194 216 226 243 233 227 221 239 269 314 315
145 147 156 177 209 224 206 149 177 196 229 248 260 263 264 267 273 265 282 296 268 259 270 274 253 260 262 259 259 258 264 231 199 199 210 238 233 200 217 245 280 300 300 303
147 156 164 163 161 151 156 174 191 222 240 258 296 302 281 256 250 260 273 286 301 277 283 240 252 266 278 288 258 242 225 234 153 201 230 217 219 226 257 272 280 288 297 301
163 166 156 151 151 165 181 205 212 232 255 267 289 304 272 269 239 239 263 262 250 251 261 268 256 274 279 271 238 214 200 192 179 199 220 227 221 250 271 279 286 292 298 302
138 145 161 161 199 213 219 210 224 237 283 278 265 264 254 259 252 246 245 241 239 251 253 264 265 317 348 348 197 170 200 210 223 238 216 238 246 266 276 279 287 293 300 302
153 160 189 231 228 239 265 274 262 262 264 271 275 290 259 262 253 221 237 240 243 261 251 259 192 198 304 281 208 164 176 202 226 214 245 238 255 269 275 282 290 296 307 306
202 234 248 256 286 272 276 276 279 274 281 282 278 280 273 263 251 247 232 265 267 266 322 28 78 40 63 90 141 165 182 207 214 226 246 260 268 279 281 287 292 292 317 310
271 243 263 291 302 326 321 346 334 308 348 270 254 257 239 218 224 198 214 241 310 216 323 46 74 81 118 112 128 154 192 228 248 262 267 271 276 283 287 288 291 300 318 315
237 279 290 294 312 328 322 303 314 326 333 316 293 233 111 62 250 174 205 285 188 79 76 100 89 42 4 335 319 309 302 299 294 289 284 284 288 293 296 299 307 310 319 315
Height
2953 2955 2958 2960 2965 2967 2966 2968 2970 2975 2976 2977 2972 2968 2970 2977 2982 2980 2981 2982 2985 2986 2988 2988 2988 2987 2986 2989 2993 2996 2997 2999 2999 3001 3001 3000 3000 3001 3004 3004 3001 3002 3002 2997
2943 2946 2948 2951 2956 2957 2960 2959 2960 2968 2969 2962 2963 2964 2962 2965 2971 2974 2974 2973 2976 2979 2979 2984 2984 2981 2975 2981 2986 2990 2991 2992 2997 2994 2997 2994 2992 2997 2998 2996 2998 2998 2999 2991
2936 2938 2940 2944 2947 2949 2951 2954 2954 2958 2957 2955 2957 2959 2957 2957 2958 2962 2967 2966 2968 2971 2971 2971 2976 2977 2976 2975 2979 2984 2985 2988 2993 2992 2989 2992 2991 2993 2995 2995 2995 2992 2990 2989
2928 2929 2933 2936 2939 2940 2945 2947 2947 2950 2950 2950 2951 2953 2953 2952 2952 2952 2956 2954 2960 2965 2965 2966 2966 2973 2973 2971 2973 2977 2980 2983 2985 2985 2985 2986 2987 2987 2988 2987 2985 2986 2979 2986
2920 2922 2925 2930 2931 2936 2938 2940 2943 2945 2943 2944 2942 2945 2945 2943 2946 2948 2947 2947 2952 2955 2955 2960 2961 2968 2968 2967 2969 2975 2974 2975 2975 2975 2977 2980 2980 2978 2977 2978 2978 2977 2978 2976
2911 2915 2919 2923 2926 2929 2932 2934 2936 2936 2936 2937 2940 2938 2939 2940 2940 2940 2940 2942 2943 2946 2948 2950 2954 2957 2959 2961 2965 2967 2970 2970 2971 2970 2973 2974 2973 2966 2968 2968 2972 2973 2970 2969
2903 2908 2913 2916 2921 2924 2927 2929 2930 2930 2929 2933 2935 2935 2932 2933 2934 2935 2936 2935 2935 2939 2942 2944 2946 2950 2948 2953 2957 2961 2963 2965 2968 2967 2968 2969 2962 2964 2964 2965 2966 2965 2964 2963
2896 2901 2906 2911 2915 2919 2921 2926 2926 2928 2927 2928 2930 2930 2929 2931 2930 2931 2930 2932 2933 2933 2938 2939 2941 2941 2942 2946 2948 2952 2955 2960 2962 2964 2963 2961 2958 2955 2961 2962 2960 2956 2955 2955
2889 2895 2901 2905 2909 2913 2917 2921 2923 2924 2925 2926 2926 2925 2925 2927 2928 2927 2927 2927 2928 2930 2933 2934 2937 2939 2938 2942 2943 2942 2947 2951 2957 2958 2960 2958 2945 2951 2953 2955 2952 2949 2949 2947
2883 2889 2895 2900 2904 2908 2912 2918 2920 2921 2922 2923 2924 2926 2926 2925 2928 2928 2928 2928 2929 2929 2930 2932 2935 2936 2937 2938 2937 2939 2943 2944 2947 2948 2950 2946 2942 2945 2949 2951 2951 2945 2944 2941
2876 2884 2890 2896 2901 2905 2908 2915 2917 2919 2920 2921 2922 2924 2926 2927 2929 2928 2928 2930 2930 2930 2931 2932 2933 2934 2933 2935 2935 2937 2939 2940 2940 2942 2941 2940 2940 2942 2946 2942 2940 2937 2939 2936
2871 2878 2886 2891 2897 2900 2905 2910 2914 2917 2917 2919 2920 2922 2924 2926 2925 2927 2928 2930 2930 2930 2932 2933 2933 2933 2933 2934 2933 2933 2935 2935 2937 2939 2937 2936 2937 2939 2940 2938 2936 2934 2933 2932
2867 2874 2881 2887 2893 2897 2902 2907 2910 2913 2915 2917 2918 2920 2922 2922 2924 2925 2925 2927 2929 2929 2930 2930 2931 2932 2932 2931 2932 2930 2932 2932 2932 2932 2932 2931 2930 2932 2933 2934 2933 2931 2930 2928
2865 2871 2878 2885 2890 2895 2899 2903 2908 2911 2914 2915 2917 2917 2918 2919 2921 2922 2923 2925 2926 2926 2927 2926 2927 2928 2929 2927 2928 2927 2929 2929 2928 2926 2925 2923 2917 2927 2929 2928 2929 2930 2928 2926
2864 2870 2876 2882 2888 2893 2895 2901 2905 2908 2913 2913 2913 2914 2916 2917 2918 2919 2920 2921 2922 2922 2922 2921 2921 2922 2925 2922 2923 2916 2923 2924 2924 2922 2924 2923 2923 2925 2926 2927 2927 2926 2925 2924
2863 2870 2876 2882 2887 2891 2894 2898 2902 2905 2908 2910 2912 2913 2914 2914 2914 2915 2915 2914 2915 2915 2915 2916 2915 2917 2921 2917 2912 2909 2915 2919 2920 2920 2922 2921 2918 2924 2925 2924 2925 2925 2923 2922
2864 2871 2876 2882 2886 2891 2895 2898 2900 2902 2906 2909 2910 2910 2911 2911 2912 2912 2911 2911 2911 2912 2912 2909 2910 2913 2914 2909 2902 2906 2909 2913 2914 2916 2917 2918 2920 2920 2921 2921 2921 2922 2920 2918
2867 2873 2878 2882 2887 2890 2893 2896 2899 2902 2905 2907 2908 2907 2908 2909 2908 2909 2909 2908 2908 2906 2906 2905 2905 2907 2906 2897 2892 2898 2903 2904 2907 2911 2913 2912 2915 2916 2917 2919 2919 2919 2916 2915
2869 2873 2879 2884 2887 2891 2895 2897 2898 2900 2905 2904 2904 2904 2905 2904 2904 2904 2904 2903 2901 2900 2897 2897 2901 2895 2889 2887 2891 2895 2898 2899 2901 2906 2908 2909 2911 2913 2915 2916 2914 2912 2911 2912
2875 2879 2884 2887 2888 2891 2895 2898 2900 2901 2902 2901 2899 2900 2900 2902 2900 2900 2902 2898 2896 2892 2889 2890 2886 2878 2879 2882 2884 2889 2892 2894 2898 2901 2903 2905 2907 2908 2909 2907 2908 2907 2908 2907
2879 2881 2885 2888 2890 2893 2895 2897 2898 2899 2897 2895 2895 2895 2894 2896 2896 2897 2897 2896 2895 2889 2886 2883 2877 2867 2870 2874 2873 2877 2885 2888 2890 2896 2898 2899 2901 2903 2904 2904 2904 2903 2902 2901
2883 2886 2888 2890 2892 2894 2896 2896 2896 2895 2894 2893 2893 2893 2893 2893 2893 2894 2894 2892 2891 2883 2882 2878 2868 2866 2867 2866 2867 2869 2876 2881 2887 2888 2893 2895 2897 2899 2899 2899 2899 2898 2897 2896
2887 2889 2890 2892 2893 2893 2893 2892 2892 2892 2891 2891 2891 2890 2890 2890 2891 2891 2890 2887 2882 2880 2877 2872 2866 2865 2863 2863 2865 2867 2873 2879 2883 2885 2888 2892 2893 2893 2894 2894 2893 2892 2891 2889
2889 2890 2890 2891 2890 2890 2889 2890 2890 2891 2889 2889 2888 2887 2887 2886 2885 2884 2883 2880 2878 2875 2871 2868 2867 2866 2865 2863 2864 2866 2871 2877 2880 2881 2886 2887 2888 2889 2889 2889 2888 2887 2885 2881
2890 2890 2889 2888 2889 2889 2888 2886 2885 2886 2884 2883 2883 2883 2883 2883 2883 2881 2879 2877 2874 2872 2871 2865 2867 2868 2868 2868 2868 2871 2874 2877 2879 2882 2883 2883 2884 2884 2884 2883 2882 2881 2877 2873
2889 2888 2888 2888 2887 2886 2885 2883 2882 2881 2879 2879 2880 2879 2878 2877 2876 2875 2875 2874 2873 2872 2871 2871 2871 2871 2871 2872 2874 2875 2877 2878 2879 2879 2879 2880 2880 2880 2879 2878 2877 2874 2869 2866
2886 2886 2885 2885 2885 2884 2883 2882 2881 2880 2879 2879 2876 2874 2871 2874 2872 2873 2875 2874 2872 2872 2873 2873 2873 2874 2874 2874 2874 2875 2875 2875 2876 2876 2876 2876 2876 2875 2874 2872 2870 2867 2864 2861